LFMLLFMU

Guest
Details From LFML - Marseille Provence
To LFMU - Beziers Vias
Flight Number -
Tags generated
Created
Modified
Stats Distance 82 nm / 151 km
Max Altitude 5,800 ft / 1,768 m
Waypoints 3
Social Downloads 0
Likes 0
Share VATSIM

Download

Looking for another format? Having issues loading an existing format? Contact us
Advertisement - Login to hide

Notes

Basic altitude profile: - Ascent Rate: 1000ft/min - Ascent Speed: 120kts - Cruise Altitude: 4500ft - Cruise Speed: 180kts - Descent Rate: 1500ft/min - Descent Speed: 160kts Options: - Use NATs: yes - Use PACOTS: yes - Use low airways: yes - Use high airways: yes

Route

LFML RHONE LFMU

ID Type Via Altitude Latitude Longitude Leg Dist Tot Dist Heading (true) Name
O LFML APT - 0 ft / 0 m 43.43589˚ 5.21328˚ - 0 nm - Marseille Provence
RHONE FIX - 5,800 ft / 1,768 m 43.38603˚ 4.84456˚ 16 nm 16 nm 260° / 259° -
O LFMU APT - 0 ft / 0 m 43.32342˚ 3.35357˚ 65 nm 81 nm 267° / 266° Beziers Vias

Altitude Profile

LFML

Details ICAO LFML (MRS)
Name Marseille Provence
Region France
Timezone Europe/Paris (UTC+2.0)
Stats Elevation 74 ft / 23 m (AMSL)
Location 43.435892° 5.213282°
Runways 2
Magnetic Variation 1.470° E

METAR

LFML 270630Z AUTO 13004KT 080V190 9999 FEW012 13/07 Q1021 NOSIG

Decode

TAF

TAF TAF LFML 270200Z 2703/2809 VRB02KT CAVOK TEMPO 2703/2707 BKN013 BECMG 2707/2709 18012KT BECMG 2717/2719 VRB02KT TX17/2712Z TN07/2804Z

Decode

Departure Runways

ID Width Length Bearing (true) Bearing (mag) Surface Threshold Offset Overrun Length
13L 148 ft / 45 m 11,478 ft / 3,499 m 133.99° 132.52° Asphalt 1,115 ft / 340 m 0 ft / 0 m
13R 148 ft / 45 m 7,981 ft / 2,433 m 134.90° 133.43° Asphalt 0 ft / 0 m 0 ft / 0 m
31L 148 ft / 45 m 7,981 ft / 2,433 m 314.91° 313.44° Asphalt 344 ft / 105 m 0 ft / 0 m
31R 148 ft / 45 m 11,478 ft / 3,499 m 314.01° 312.54° Asphalt 2,165 ft / 660 m 0 ft / 0 m

LFMU

Details ICAO LFMU (BZR)
Name Beziers Vias
Region France
Timezone Europe/Paris (UTC+2.0)
Stats Elevation 54 ft / 16 m (AMSL)
Location 43.323422° 3.353573°
Runways 1
Magnetic Variation 1.016° E

METAR

LFMU 270630Z AUTO 04007KT 6000 SCT019 BKN026 BKN031 10/10 Q1020 TEMPO 3000 BR OVC003

Decode

TAF

TAF LFMU 270200Z 2703/2803 VRB03KT 9999 BKN012 TEMPO 2703/2709 3000 BR OVC003 BECMG 2710/2712 12010KT SCT012 TEMPO 2714/2718 SHRA BKN012 BKN080 BECMG 2718/2720 VRB03KT BKN008

Decode

Destination Runways

ID Width Length Bearing (true) Bearing (mag) Surface Threshold Offset Overrun Length
10 115 ft / 35 m 5,955 ft / 1,815 m 94.20° 93.18° Asphalt 459 ft / 140 m 0 ft / 0 m
28 115 ft / 35 m 5,955 ft / 1,815 m 274.22° 273.20° Asphalt 0 ft / 0 m 0 ft / 0 m

Approach Navaids

Runway Type Ident Frequency Range Bearing (true) Bearing (mag) Slope Elevation
10 Localiser ZR 109.35 MHz 18 nm / 33 km 94.52° 93.51° - 50 ft / 15 m (AMSL)
10 Glidescope ZR 109.35 MHz 10 nm / 19 km 94.21° 93.19° 3.00° 92 ft / 28 m (AMSL)
10 DME ZR 109.35 MHz 18 nm / 33 km - - - 92 ft / 28 m (AMSL)

Popular Alternatives